CAPE
712 824 725 385 1009 139 168 108 114 139 299 456 132 371 404 610 633 645 927 1013 491 442 1072 1706 2531 2462 1934 1832 1910 1826 1906 1905 1631 1630 1645 1704 1838 1922 1763 1719 1809 1997 2048 1796 1666 1736 1836 2035 2065
781 801 199 260 446 100 105 92 125 252 447 400 298 281 449 808 633 732 876 896 474 462 472 1372 2760 2881 1961 1940 2213 2253 2134 2252 2102 1897 1792 1932 1870 1866 1802 1864 1794 2084 2096 1985 1726 1760 1848 1854 1820
259 417 317 198 258 116 106 107 212 247 195 188 231 263 343 768 506 716 836 981 747 639 607 1711 2741 2696 2006 2271 1959 1843 1907 1845 1910 1820 1877 1823 1808 1893 1757 1694 1990 1949 1978 1454 1568 1694 1641 1814 1908
445 213 319 521 175 239 119 80 138 307 185 164 130 260 478 547 574 784 955 986 910 1066 767 2160 1319 1866 1946 2161 2239 1897 1842 1808 1500 1564 1759 1848 1788 1704 1712 1754 2056 1864 1877 1822 1742 1777 1731 1683 1616
699 344 281 321 317 182 162 130 183 197 222 114 80 186 467 555 622 908 1217 996 1032 1027 1180 1488 2403 1659 1783 2140 2206 1691 1446 1806 432 1797 1909 1867 1769 1776 1615 1894 1715 1577 1512 1597 1472 1313 1119 1069 1268
781 272 359 263 177 117 139 223 256 165 128 93 64 154 549 755 772 941 1184 1025 1202 1179 1423 1861 2103 2146 2099 2011 1916 1815 1439 1042 1844 1681 1811 1767 1728 1727 1594 1431 1211 1389 1291 1340 1293 1196 1232 1381 1236
349 346 351 333 133 159 176 214 206 136 22 78 36 78 517 791 891 813 857 869 1129 1285 1347 823 1502 1310 1606 1923 1670 1360 1233 1406 1828 1691 1734 1764 1785 1713 1519 1441 1196 1125 1149 1188 1174 1274 1370 1413 1480
211 378 374 399 180 208 176 221 202 107 165 75 39 157 339 898 736 750 676 889 936 1268 1395 925 1459 1598 1682 1959 1453 1338 1153 914 1956 1771 1732 1832 1695 1586 1759 1667 1550 1193 1216 1265 1330 1445 1587 1921 2008
15 355 350 198 179 230 340 343 236 173 136 109 109 89 127 702 475 566 589 597 920 1021 916 1155 1503 1677 2025 1402 1226 1152 1554 1090 1428 1244 1286 1693 1317 1494 837 1621 1557 1383 1407 1445 1551 1817 2142 2388 2590
0 73 18 16 282 159 378 252 368 246 129 137 214 142 469 592 509 486 479 376 427 502 745 821 900 1138 1178 1012 1621 1437 1395 1190 1708 1358 1670 2146 1702 1180 572 1326 1513 1500 1524 1722 1956 1883 1553 1223 1125
0 0 0 39 310 354 360 289 245 175 162 119 160 412 575 646 632 422 380 400 204 222 396 673 879 921 1000 1096 952 510 865 720 1669 1358 1713 1916 1388 543 389 737 950 1106 1478 1432 1131 1400 1324 1502 1595
0 0 39 263 458 684 426 440 289 239 195 84 142 364 515 639 578 530 413 379 325 310 341 582 802 877 833 907 430 275 559 572 1135 1386 1421 1429 900 618 476 460 719 1045 822 1047 1394 1454 1949 1951 1831
0 193 300 450 704 779 785 669 442 259 221 82 198 313 395 484 468 491 383 426 306 485 544 260 631 905 1080 972 121 323 98 546 1297 1414 1569 721 465 459 492 654 547 574 972 1357 1698 1773 1857 1811 1648
101 798 623 1004 1036 927 855 695 449 431 281 265 173 220 273 314 376 483 481 468 521 369 368 86 416 741 896 223 175 496 197 558 1203 1334 816 1242 420 502 287 509 613 1006 1376 1649 1770 1646 1906 1663 1068
79 145 359 828 1118 1033 817 926 713 585 381 358 116 94 130 193 220 397 425 388 409 522 386 267 313 309 723 206 119 3 169 282 872 749 849 1434 818 1195 958 783 1072 1219 1861 2149 1733 1738 1552 1368 874
0 10 345 576 1141 1200 1010 609 1075 734 515 604 149 37 50 140 123 165 186 136 201 284 591 613 237 118 155 357 37 67 251 150 599 228 982 971 1230 1735 2040 1242 1085 1491 1625 1416 1137 1234 1172 1210 1002
0 1 0 84 770 1115 709 3 1064 734 646 644 369 53 36 143 157 191 128 87 37 185 392 427 230 57 123 311 391 70 131 143 183 335 692 1396 1583 1907 1664 1183 1052 1712 1661 1331 998 1002 1548 1385 795
0 0 0 0 115 78 4 0 2 852 705 666 650 330 36 110 203 157 188 134 70 148 361 302 245 258 366 1175 380 267 231 135 158 366 700 1341 1365 1775 1709 834 1403 1676 1488 1125 995 1695 1694 1789 1729
0 0 0 0 0 0 0 0 0 246 1008 870 854 648 230 78 148 243 205 153 165 198 318 436 416 549 817 553 389 228 146 98 132 290 1142 1612 1332 1688 2242 1039 1834 1957 1804 2146 1486 1371 1255 918 1482
0 0 0 0 0 0 0 0 3 59 1046 1043 978 833 580 178 181 290 352 253 199 349 437 491 443 704 744 444 304 343 488 130 67 187 768 1662 1410 1431 1679 1681 1493 1712 1584 2311 2292 2091 1227 899 1503
0 0 0 0 0 0 0 0 4 568 825 1009 981 922 682 495 212 370 427 398 382 422 531 615 512 727 725 420 327 184 260 576 85 632 822 1139 1577 1528 1603 1775 2042 1956 2236 1577 1662 1610 1790 941 719
0 0 0 0 0 0 0 0 0 1 198 1046 956 963 814 650 440 351 462 448 475 562 656 655 741 598 695 629 282 640 127 100 302 489 952 998 1581 1650 1400 1529 2033 2352 1488 1630 1489 1795 2002 1836 683
0 0 0 0 0 0 0 0 0 0 0 0 136 792 638 679 595 453 445 514 518 593 743 662 966 666 590 810 956 679 462 88 347 513 1096 1844 1750 1821 1260 1504 1725 2169 1859 1605 1833 1802 2201 1479 1291
0 0 0 0 0 0 0 0 0 0 0 0 0 0 313 504 632 579 470 587 607 600 801 773 1094 1081 612 824 708 876 850 667 748 907 1102 1183 1190 1462 1788 1585 1917 1985 1994 1951 1999 2100 2037 1921 1595
0 0 0 0 0 0 0 0 0 0 0 0 0 0 0 308 671 708 588 577 677 749 866 882 1175 1272 681 746 741 725 857 902 1017 1200 877 1197 824 792 1064 2079 2062 1853 2206 1870 1948 2027 1951 1954 1671
0 0 0 1 0 0 0 0 0 0 0 0 0 0 0 98 742 793 758 581 766 884 1020 954 1238 1452 1080 565 709 915 892 645 660 736 508 256 759 853 1110 2017 2213 2192 2003 2159 2022 2118 1940 1587 1725
0 0 0 0 0 0 0 0 0 0 0 0 0 0 0 362 864 933 967 755 975 1104 1144 1128 1255 1618 1282 964 858 853 945 875 584 759 536 487 1445 1146 1605 2000 2067 2055 2163 2302 2265 2708 1633 2097 1886
0 0 0 0 0 0 0 0 0 0 0 0 0 0 0 258 1022 1117 1134 931 1109 1229 1267 1209 1322 1635 1505 1117 1198 1156 1019 1127 827 706 1181 981 1023 1642 1759 2171 2150 2087 2141 2422 2601 1967 1818 2346 1873
0 0 0 0 0 0 0 0 1 0 0 0 0 0 0 0 1061 1272 1267 1150 1281 1381 1329 1343 1396 1667 1730 1497 1516 1600 1585 1597 1665 1240 1415 1597 1554 1498 2084 2192 2238 2239 2398 2474 2671 2731 2204 1898 2408
0 0 0 0 0 0 0 0 0 0 0 0 0 0 0 222 864 1434 1423 1387 1328 1496 1425 1395 1480 1655 1767 1740 1679 1666 1773 1797 1711 1705 1552 1758 1905 1818 1795 1867 2000 2168 2107 2200 2330 2250 1741 1786 1964
CIN
-94 -40 -47 -89 -2 -63 -8 -8 0 -46 -4 -2 -72 -1 -1 -10 -1 -1 -17 -13 -60 -38 -11 0 0 0 0 0 0 0 0 0 0 0 0 0 0 0 0 -1 0 0 0 0 0 0 0 0 0
-23 -34 -58 -30 -1 -23 -15 0 -10 -11 -5 -4 -14 -34 -1 0 -43 -49 -27 -13 -33 -34 -66 -1 -1 0 0 0 0 -1 0 -2 0 0 0 0 -1 0 0 0 0 0 0 0 0 0 0 0 0
-94 -84 -7 -12 -16 -25 -9 -11 -1 -9 -16 -5 -11 -19 -7 0 -49 -21 -26 -4 -1 -2 -8 -5 0 0 0 0 0 0 0 0 -1 -1 -1 0 0 0 0 0 0 0 0 0 0 0 0 0 0
-39 -43 -30 -1 -1 -9 -15 -6 -13 -1 -24 -25 -6 -12 -11 -23 -10 -13 -17 -1 0 0 0 -3 -19 -6 -2 0 0 0 0 -1 -8 -3 -1 -1 -1 0 0 0 0 0 0 0 0 0 0 -3 -5
-21 -9 0 0 0 -1 -7 -4 -7 -15 -12 -5 -7 -3 -1 -12 -10 -1 0 -1 0 0 0 0 0 -7 -2 -1 0 -1 -7 -1 -45 -1 -1 0 0 0 0 0 0 0 0 0 -1 -8 -22 -33 -32
0 -1 0 0 -1 -7 -8 -5 0 0 -8 -17 -11 -3 0 0 0 0 0 0 0 0 0 0 -2 -4 -1 -1 -1 -2 -7 -7 -1 -4 -3 -1 0 -2 0 0 0 0 0 -3 -7 -15 -15 -20 -33
-1 0 -1 0 -1 -3 -1 -7 -6 0 -3 -3 -23 0 0 0 0 0 0 -2 0 0 0 -49 0 0 -8 -1 -6 -12 -14 -9 -2 -6 -1 -2 0 0 0 0 0 0 -5 -17 -25 -25 -22 -31 -28
-14 0 0 0 0 -2 -10 -6 -11 -5 -12 -25 -37 -1 0 0 0 0 0 0 0 0 0 -5 0 -1 0 -4 -9 -9 -8 -13 -1 -2 -3 -1 -2 -1 -2 -3 0 0 -5 -18 -28 -32 -26 -19 -28
-97 0 0 0 0 -1 -8 -2 -21 -27 -13 -14 -27 -25 -16 0 0 0 0 0 0 0 0 0 0 -2 0 -5 -1 -3 -3 -4 -3 -6 -8 -2 0 0 -1 -7 -1 0 -2 -7 -17 -27 -26 -22 -40
0 -3 -21 -12 -1 -1 -9 -7 -11 -11 -18 -18 -29 -52 -21 0 0 0 0 0 0 0 0 0 0 0 0 0 0 0 0 -15 -13 0 0 0 0 0 -1 -1 0 -6 -13 -16 -19 -38 -54 -91 0
0 0 0 -23 -17 -21 -5 -12 -10 -1 0 0 -2 -31 -9 0 0 0 0 0 0 0 0 0 0 0 0 0 0 -8 -7 -28 -9 0 -2 0 0 0 0 -1 0 0 -19 0 -10 -12 -1 -1 0
0 0 -94 -35 -32 -14 -11 -16 -5 -6 -4 -14 -19 -26 -5 0 0 0 0 0 0 0 0 0 0 0 0 0 -15 -57 -34 -39 -8 0 -2 0 0 0 0 0 0 -1 0 -4 -1 0 -2 -3 -3
0 -27 -55 -42 -15 -22 -28 -13 -10 -14 -34 -38 -27 -29 -4 0 0 0 0 0 0 0 0 -2 0 0 0 0 -79 -46 -67 -10 -3 -1 0 -1 0 0 0 0 0 -3 -2 0 0 0 -2 -1 0
-49 -19 -27 -29 -20 -20 -16 -19 -25 -14 -34 -34 -33 -21 -9 -1 0 0 0 0 0 0 0 -3 0 0 0 -11 -38 -6 -36 -2 -1 0 0 0 -1 -1 -1 -5 0 0 0 0 -1 -5 -1 -2 0
-79 -20 -18 -17 -21 -15 -25 -13 -20 -22 -35 -24 -20 -18 -10 -20 -4 0 0 0 0 0 0 -1 0 0 0 -11 -32 -36 -32 -5 0 0 -19 0 -1 -3 0 0 0 0 -1 -8 -2 -3 -3 0 0
0 -20 0 -15 -26 -30 -25 0 -25 -45 -36 -14 -12 -21 -21 -37 -17 -14 -1 -1 -1 0 0 0 -1 -5 -1 -1 -63 -47 -1 -2 -2 -22 0 0 0 0 -5 0 0 -1 -7 0 0 0 0 0 0
0 0 0 -24 -27 -17 -21 -26 -46 -63 -38 -10 -15 -16 -33 -13 -21 -16 -16 -9 -23 -6 -3 0 0 -11 -8 -1 0 -52 -20 -6 -35 -37 -1 -2 0 0 0 0 -1 -11 0 0 0 0 0 0 0
0 0 0 0 -53 -14 -8 0 -12 -55 -50 -29 -16 -11 -32 -11 -7 -13 -13 -15 -14 -11 -4 0 0 -1 0 0 0 0 -4 -38 -18 -2 0 -1 0 0 -2 -3 -7 -5 0 0 -1 -9 0 -1 0
0 0 0 0 0 0 0 0 0 -33 -48 -42 -24 -16 -21 -16 -3 -7 -20 -18 -19 -16 -7 0 0 0 0 0 0 0 -22 -31 -17 -5 -2 0 -4 -2 -3 0 -3 -3 0 -2 -5 -2 -1 0 0
0 0 0 0 0 0 0 0 -5 -28 -25 -32 -30 -19 -18 -27 -10 -15 -18 -19 -18 -27 -20 -3 0 0 0 -1 0 -1 0 -58 -25 -29 -32 -1 -5 -9 -1 -1 -1 -3 0 0 0 -1 0 0 -1
0 0 0 0 0 0 0 0 -2 -13 -26 -45 -45 -36 -17 -22 -31 -15 -21 -22 -18 -25 -43 -29 -7 0 0 0 0 -48 -38 -32 -45 -13 -47 -5 -5 -5 -8 -2 -1 -1 -1 0 -1 -1 -2 -1 -1
0 0 0 0 0 0 0 0 0 -3 -12 -28 -50 -40 -41 -28 -35 -29 -22 -22 -22 -23 -34 -46 -26 -10 0 -2 -26 0 -88 -61 -81 -26 -25 -3 -2 -5 0 -2 0 0 0 -1 0 0 0 -2 0
0 0 0 0 0 0 0 0 0 -1 0 0 -4 -34 -39 -38 -38 -40 -33 -25 -21 -23 -26 -33 -40 -35 -13 -4 -1 -12 -11 -15 -9 -1 0 -1 -1 -5 -4 -4 -1 0 0 -1 -3 0 -1 0 0
0 0 0 0 0 0 0 0 0 0 0 0 0 0 -28 -45 -50 -55 -28 -11 -20 -17 -25 -24 -40 -48 -49 -23 -18 -15 -7 0 0 0 0 0 0 0 -4 -6 -7 -1 0 0 0 0 0 0 -1
0 0 0 0 0 0 0 0 0 0 0 0 0 0 0 -36 -54 -63 -56 -46 -18 -21 -32 -31 -42 -41 -64 -48 -30 -21 -16 -16 -2 0 0 0 0 0 0 -8 -10 -4 -5 -1 0 0 0 0 0
0 0 0 0 0 0 0 0 0 0 0 0 0 0 0 -29 -27 -46 -59 -62 -37 -34 -36 -41 -45 -45 -50 -69 -61 -33 -21 -22 -18 -10 -1 0 0 0 0 -1 -4 -13 -5 -2 -1 0 0 0 0
0 0 0 0 0 0 0 0 0 0 0 0 0 0 0 -38 -38 -47 -48 -54 -40 -36 -41 -52 -52 -48 -54 -56 -62 -57 -41 -31 -25 -15 -16 -5 0 0 0 0 0 -3 -2 0 0 0 0 0 0
0 0 0 0 0 0 0 0 0 0 0 0 0 0 0 -51 -63 -57 -52 -55 -40 -50 -49 -54 -48 -51 -50 -47 -50 -46 -53 -46 -38 -38 -22 -8 0 0 0 0 0 -2 -1 0 0 -3 0 0 0
0 0 0 0 0 0 0 0 0 0 0 0 0 0 0 0 -67 -68 -62 -55 -41 -49 -48 -57 -46 -40 -47 -55 -45 -36 -32 -24 -17 -24 -21 -12 -5 -3 -1 0 0 0 0 0 0 -1 -1 0 0
0 0 0 0 0 0 0 0 0 0 0 0 0 0 0 -138 -83 -94 -79 -75 -48 -52 -52 -56 -46 -38 -55 -78 -95 -61 -39 -26 -18 -24 -25 -16 -8 -5 -6 -9 -6 -1 0 0 0 0 0 0 0
Wind_Speed
10 8 2 5 6 4 5 7 4 7 6 5 3 4 6 8 7 4 9 10 20 17 14 14 13 14 13 13 12 12 11 10 9 9 8 8 9 10 9 8 10 11 11 11 11 12 11 12 12
5 1 5 2 4 4 4 4 10 11 9 8 6 3 0 7 7 8 12 12 20 18 12 13 11 12 14 12 12 11 11 9 9 9 8 8 9 9 9 9 8 11 13 11 11 11 11 12 12
3 4 5 1 2 3 7 9 9 8 4 0 2 3 3 5 6 11 11 17 19 18 15 9 11 12 13 12 11 10 9 7 7 8 7 7 8 9 10 9 11 10 12 11 11 11 11 11 11
4 5 5 3 9 4 11 7 7 6 6 3 2 5 6 2 8 7 16 16 14 15 15 15 13 11 12 11 12 10 8 6 4 7 8 8 9 10 10 10 11 11 12 11 10 9 9 8 7
4 3 2 5 7 5 3 2 3 4 4 2 2 5 6 5 7 15 16 13 14 13 14 15 14 14 10 13 12 9 7 7 6 7 8 9 9 11 10 12 11 11 10 9 8 7 6 5 4
4 3 5 5 8 4 3 2 4 2 2 5 3 6 7 8 11 13 14 13 14 11 12 11 12 14 12 11 11 11 8 8 9 7 8 8 9 11 12 12 11 10 9 8 6 5 4 4 2
6 3 2 4 7 6 5 4 4 3 3 3 5 3 7 10 11 12 12 13 12 11 12 5 8 11 11 11 10 9 8 7 8 8 7 9 10 11 13 12 10 8 8 7 5 4 4 3 3
4 4 4 1 4 5 4 3 3 2 5 7 1 3 7 13 12 13 11 12 12 9 11 12 8 9 8 5 8 8 5 7 7 6 9 9 11 10 12 10 9 8 7 5 4 2 1 3 5
2 3 7 5 2 5 3 3 2 2 6 1 3 2 7 17 15 14 13 13 11 10 12 12 12 8 9 5 8 8 7 5 6 8 8 10 6 10 13 12 9 6 4 2 2 3 2 5 11
4 4 6 4 4 1 1 2 6 6 8 5 5 6 15 18 15 15 14 13 14 13 9 8 8 11 10 8 6 7 8 5 3 1 7 5 4 6 9 8 6 5 3 4 5 6 7 10 3
2 5 5 3 5 1 0 2 3 3 5 1 6 13 17 16 15 13 12 12 14 13 10 10 8 6 9 6 7 4 4 2 1 3 5 6 5 8 6 6 7 7 7 5 8 8 6 3 5
5 3 3 4 2 3 5 1 3 4 5 2 10 15 16 17 14 13 12 11 11 12 11 10 10 7 8 6 6 5 3 2 2 2 5 4 5 4 4 3 5 4 3 2 1 2 4 5 5
4 5 2 1 3 2 3 7 7 4 3 8 13 14 15 14 12 10 9 10 10 12 11 6 10 8 8 7 6 4 3 2 3 4 5 4 4 3 5 4 3 1 1 1 1 2 3 4 6
6 5 1 0 1 1 5 3 5 4 8 10 13 13 13 13 12 10 10 10 12 11 12 10 11 9 9 7 8 5 4 9 6 6 4 4 3 4 5 5 4 3 1 2 1 2 3 5 6
3 7 3 2 1 0 4 9 6 4 10 11 13 12 13 12 11 11 11 10 11 11 12 15 11 12 10 10 6 5 3 6 5 3 2 5 5 5 1 3 4 2 2 3 2 3 3 4 4
8 5 2 5 0 3 6 5 4 7 11 12 14 12 12 14 13 11 11 11 11 10 11 13 12 14 12 11 7 7 6 4 3 1 5 6 5 4 4 4 3 2 2 2 1 2 4 3 3
7 7 5 2 1 1 5 9 6 8 11 12 13 14 13 13 13 13 12 11 12 11 12 12 12 12 13 11 9 9 6 6 5 6 6 6 5 5 4 2 2 3 1 2 3 1 3 4 4
2 5 2 5 3 6 9 10 6 10 12 12 13 14 14 15 16 15 15 14 12 12 12 12 11 12 12 9 9 8 8 6 6 5 5 6 5 5 5 4 3 4 2 1 1 3 3 4 4
6 10 11 8 5 7 8 11 9 7 13 13 14 15 16 16 16 15 15 15 15 14 14 13 12 13 10 9 10 9 8 6 6 5 5 6 5 6 5 3 4 3 3 3 2 3 2 4 4
11 12 12 3 0 9 14 17 8 9 13 15 16 16 18 17 16 16 17 16 16 16 15 14 14 13 12 9 9 6 7 4 7 5 6 8 7 6 6 3 4 2 3 2 3 3 4 2 4
15 15 12 11 11 15 10 14 5 5 9 12 15 16 18 19 19 18 18 18 17 17 17 16 15 15 14 13 7 5 6 4 7 7 4 8 8 8 8 6 5 3 5 5 3 3 2 5 2
15 12 12 12 9 9 1 11 6 4 6 11 14 18 19 20 20 19 19 18 18 17 17 17 16 16 15 15 11 12 5 7 4 8 7 8 8 8 9 8 7 6 4 1 4 5 5 3 3
15 13 11 10 11 10 14 8 9 7 9 9 13 17 18 19 20 21 21 21 19 18 17 17 17 16 16 16 13 12 12 11 10 8 7 8 6 8 9 8 8 8 7 6 5 5 4 3 5
9 10 10 9 11 13 15 10 8 2 3 6 10 1 12 19 21 21 21 20 18 17 17 17 18 17 17 16 16 15 15 11 9 9 8 8 8 9 10 10 9 8 8 7 7 7 7 7 5
11 13 9 11 11 12 2 7 11 14 12 11 10 10 6 13 20 22 23 20 18 19 19 17 19 18 18 18 17 17 15 15 12 9 10 8 8 7 10 10 10 9 9 8 8 7 8 7 8
17 16 12 10 11 9 7 6 6 6 12 11 9 9 6 8 17 21 22 20 20 20 20 19 20 19 19 19 18 15 16 12 12 12 10 9 9 9 9 9 10 11 10 9 8 8 8 9 7
14 12 17 19 14 11 13 16 9 11 8 7 10 4 4 6 12 20 22 21 21 20 21 21 20 20 20 20 17 17 15 16 13 13 12 10 9 7 7 9 10 10 10 9 9 6 10 8 7
16 8 11 11 16 16 11 9 8 7 6 6 3 3 3 4 11 16 19 21 19 18 20 21 20 20 19 19 17 16 17 17 15 13 13 12 11 10 9 9 10 10 10 10 10 9 11 10 9
9 13 14 14 10 10 11 9 8 4 8 8 7 5 5 5 11 14 17 18 19 19 19 19 19 18 18 18 17 17 16 17 15 14 13 13 12 12 11 11 10 10 10 10 9 9 9 10 10
14 14 20 13 17 12 10 12 12 6 10 10 10 6 3 3 11 14 17 18 18 18 18 19 18 18 17 15 13 17 15 15 16 15 15 14 13 13 12 12 12 11 11 11 11 12 12 12 12
Wind_Direction
174 184 239 233 240 256 108 80 111 114 128 71 25 353 15 20 1 44 127 137 153 151 152 160 149 149 136 131 125 125 128 132 136 130 125 128 124 117 111 104 103 103 107 97 94 92 97 100 104
133 165 231 266 242 98 85 86 79 74 92 121 128 202 98 79 59 123 138 166 154 144 161 136 152 150 137 136 134 136 136 141 145 129 137 134 126 122 116 111 116 101 104 98 99 103 104 106 106
160 246 272 52 228 104 101 98 106 99 96 102 85 1 14 58 108 132 122 159 162 146 170 148 148 148 142 144 138 137 135 146 141 139 137 135 129 126 117 121 110 108 103 105 106 104 105 102 100
219 188 218 254 106 79 111 111 122 126 102 56 59 97 103 64 134 141 143 161 149 147 161 138 151 148 152 151 144 141 140 145 101 144 143 139 132 124 123 114 107 104 101 102 103 101 99 96 90
223 232 231 138 104 110 107 75 143 136 84 61 308 100 88 89 109 135 142 161 143 164 144 155 164 164 170 166 153 152 149 146 178 155 145 136 133 121 124 108 111 104 106 104 105 103 101 96 87
224 278 212 138 97 92 117 131 166 126 64 100 125 124 103 116 143 149 153 156 138 169 145 145 164 166 170 170 169 159 164 159 161 148 143 133 125 120 116 113 109 107 107 101 90 77 58 41 29
325 318 35 123 107 104 88 123 162 109 100 89 118 136 103 151 136 152 155 122 164 148 138 162 185 161 167 170 167 161 162 152 145 149 140 124 127 131 119 115 114 117 110 99 88 70 45 5 333
313 276 127 159 171 104 122 109 150 232 81 111 151 96 159 142 153 147 155 152 147 156 143 171 196 154 143 169 151 140 139 147 146 146 128 134 137 127 116 128 118 118 116 117 117 100 20 303 290
318 288 46 57 249 107 133 192 141 127 145 175 59 10 117 140 154 155 158 161 153 164 169 169 154 147 138 146 126 134 83 95 135 153 131 156 163 165 171 79 121 129 127 139 192 202 231 269 248
295 330 21 1 342 284 70 316 157 196 164 166 115 108 130 153 163 166 165 165 166 166 163 157 152 145 143 130 130 113 91 71 314 169 148 130 178 91 98 115 137 141 182 205 231 242 237 231 286
56 334 359 34 347 262 239 224 171 252 198 173 140 145 154 162 170 173 174 173 172 160 166 154 139 142 139 144 123 106 84 75 329 146 159 164 167 161 175 139 167 165 201 192 207 203 231 10 308
294 8 308 350 340 211 233 325 245 243 26 57 126 152 161 173 176 178 182 172 162 168 162 169 147 148 145 130 112 107 77 34 19 236 178 148 191 162 148 163 124 195 157 132 240 321 349 301 305
284 350 348 261 320 230 245 234 276 230 142 133 135 157 168 179 175 178 174 167 172 175 152 170 149 151 140 142 128 114 112 141 238 220 202 173 172 159 184 142 175 192 162 85 295 322 346 320 272
342 343 321 300 29 114 250 223 241 132 149 149 156 164 169 177 176 170 181 175 179 183 170 164 168 156 141 145 154 143 178 165 188 200 169 204 213 169 158 165 179 163 256 79 350 10 322 306 320
296 296 234 138 8 247 283 218 232 137 171 168 172 170 165 175 175 181 182 180 185 182 174 172 188 164 168 152 160 153 193 200 169 184 181 212 202 165 198 188 201 152 125 239 219 256 237 277 307
273 248 297 88 142 119 269 8 47 167 185 177 179 173 176 176 179 180 182 184 174 178 175 182 190 179 178 154 169 207 181 214 166 208 201 177 190 194 200 191 177 83 223 240 305 322 301 291 306
205 298 341 88 185 249 259 333 105 184 197 185 186 179 187 181 187 180 181 185 170 176 172 184 190 192 185 179 183 187 209 201 205 183 218 175 192 170 230 218 152 222 214 250 302 40 322 324 323
308 287 286 328 75 265 285 283 281 188 213 211 194 193 192 193 191 184 185 181 179 174 175 182 186 185 186 176 192 195 173 177 226 203 197 182 195 181 207 147 160 242 227 224 332 334 4 313 350
280 289 288 293 315 295 306 301 285 224 208 212 209 201 201 203 189 181 188 181 176 180 182 186 188 178 182 186 188 188 182 181 221 186 239 221 212 195 196 191 188 232 255 354 254 253 203 301 6
250 268 274 331 19 297 315 306 275 216 214 212 207 207 209 203 191 191 189 189 187 181 182 184 189 181 192 186 197 190 180 170 218 195 232 226 209 209 209 235 197 206 209 233 289 329 310 250 57
241 262 288 305 304 277 284 280 191 166 210 220 216 214 212 206 197 191 196 195 189 184 184 181 184 181 191 181 179 151 189 144 205 208 206 215 223 213 220 206 258 200 269 184 225 230 338 343 320
253 251 274 282 274 280 72 296 268 229 228 211 217 217 216 209 202 194 195 198 197 192 184 180 181 183 189 189 186 187 187 198 199 222 189 212 215 213 209 210 214 229 264 293 225 225 301 278 307
262 272 263 270 268 283 271 246 278 198 254 247 204 215 219 216 208 202 194 196 200 188 187 181 181 182 186 187 198 186 205 198 193 221 193 226 192 214 215 207 214 219 231 203 255 245 241 269 288
259 221 225 245 254 257 254 245 279 71 219 303 307 211 202 212 209 206 201 195 195 188 188 184 181 182 186 190 199 199 196 217 206 205 197 214 205 194 211 212 217 222 232 232 232 229 234 256 279
202 222 230 216 220 254 57 258 270 300 293 281 293 293 240 205 206 200 201 193 189 187 188 186 184 187 187 190 195 203 206 205 210 218 216 234 216 213 194 213 217 218 223 238 238 225 257 240 256
208 240 252 242 251 268 124 250 240 276 296 292 281 265 267 221 198 200 198 191 188 189 188 190 186 191 189 192 196 200 206 208 215 214 243 229 238 220 220 200 216 218 228 227 232 235 235 238 241
222 233 253 273 259 263 275 273 253 259 292 270 233 239 265 225 203 195 189 191 189 190 188 190 190 194 194 194 194 197 203 217 211 221 214 229 234 243 235 229 222 220 219 227 237 241 259 252 260
255 280 213 231 265 268 268 264 265 294 349 327 239 235 306 221 199 193 190 189 188 190 192 193 191 193 195 199 197 198 202 208 214 208 215 222 227 228 248 229 224 225 224 228 232 236 241 241 248
179 228 235 280 281 284 281 272 39 258 291 302 299 319 298 281 193 196 189 189 189 190 191 194 193 191 197 200 200 204 204 205 208 208 210 216 224 225 227 237 238 235 235 235 235 243 272 264 255
287 227 224 229 235 233 276 283 300 278 306 316 301 301 320 251 198 188 186 189 190 190 193 191 194 193 197 197 200 203 207 209 205 212 211 213 221 225 228 232 235 243 244 243 239 241 258 253 248